Regional Weather Roundup
Issued by NWS Albany, NY

Home | Current Version | Previous Version | Graphics & Text | Print | Product List | Glossary On
Versions: 1 2 3 4 5 6 7 8 9 10 11 12 13 14 15 16 17 18 19 20 21 22 23 24 25 26 27 28 29 30 31 32 33 34 35 36 37 38 39 40 41 42 43 44 45 46 47 48 49 50
000
ASUS41 KALY 171510
RWRALY

NEW YORK STATE HOURLY WEATHER ROUNDUP
NATIONAL WEATHER SERVICE ALBANY NY
1000 AM EST WED JAN 17 2018

NOTE: "FAIR" INDICATES FEW OR NO CLOUDS BELOW 12,000 FEET WITH NO
SIGNIFICANT WEATHER AND/OR NO OBSTRUCTIONS TO VISIBILITY.

NYZ032-033-038>043-046>054-057>066-NYZ062>081-082-084-171600-
EAST


CITY           SKY/WX    TMP DP  RH WIND       PRES   REMARKS
ALBANY         LGT SNOW  28  24  85 N7        30.30F VSB 1   WCI  21
GLENS FALLS    LGT SNOW  25  23  92 N8        30.30S VSB 3/4 WCI  16
POUGHKEEPSIE   LGT SNOW  29  27  92 CALM      30.27F VSB 3/4
NEWBURGH       LGT SNOW  28  28 100 CALM      30.27S FOG
MONTGOMERY     LGT SNOW  30  28  92 CALM      30.25F VSB 3/4
WHITE PLAINS   LGT SNOW  33  32  96 NW6       30.23S VSB 1   WCI  28
ISLIP          LGT RAIN  39  38  96 NE5       30.23S FOG
NEW YORK CITY  LGT SNOW  34  32  92 NW10      30.26S FOG     WCI  26
CENTRAL PARK   FOG       33  32  96 VRB5      30.28S VSB 3/4 WCI  29
$$

NYZ005>009-017-018-044>046-055-056-171600-
CENTRAL


CITY           SKY/WX    TMP DP  RH WIND       PRES   REMARKS
FULTON         LGT SNOW  16   9  74 W12       30.38S WCI   3
SYRACUSE       LGT SNOW  15  10  80 W12       30.39S WCI   2
ROME           LGT SNOW  16  12  84 W12       30.39R FOG     WCI   3
ELMIRA         FAIR      14   6  70 SW8       30.37S WCI   3
BINGHAMTON     LGT SNOW  13   7  77 NW12      30.27S WCI  -1
MONTICELLO     LGT SNOW  27  25  92 W8        30.23R FOG     WCI  19
$$

NYZ026>034-041>043-087-171600-
NORTH


CITY           SKY/WX    TMP DP  RH WIND       PRES   REMARKS
WATERTOWN      SNOW      20  19  96 SW3       30.36S VSB 1/2
FORT DRUM      NOT AVBL
OGDENSBURG     LGT SNOW  17  15  90 S3        30.35S
MASSENA        CLOUDY    14  14 100 CALM      30.37S FOG
SARANAC LAKE   LGT SNOW  18  16  92 CALM      30.20S FOG
PLATTSBURGH    CLOUDY    14  12  92 N6        30.35S FOG     WCI   5
$$

NYZ001>004-010>016-019>021-085-171600-
WEST


CITY           SKY/WX    TMP DP  RH WIND       PRES   REMARKS
NIAGARA FALLS  CLOUDY    19  12  74 SW13      30.38S WCI   6
BUFFALO        LGT SNOW  12   9  87 SW14      30.39R VSB 1   WCI  -3
DUNKIRK        LGT SNOW  12   7  80 SW14G20   30.44R WCI  -3
JAMESTOWN      LGT SNOW   3   0  85 SW9       30.35R FOG     WCI -11
WELLSVILLE     PTSUNNY   10   4  76 W10       30.28R WCI  -4
ROCHESTER      LGT SNOW  14   8  77 SW14      30.39S WCI  -1
PENN YAN       FAIR      13   2  61 SW12      30.35F WCI  -1
$$

             KEY
       WCI = WIND CHILL INDEX
       VSB = VISIBILITY
       HX  = HEAT INDEX
$$



USA.gov is the U.S. government's official web portal to all federal, state and local government web resources and services.